Simultaneous Nadir Overpasses (SNOs) Predictions

Prediction of SNOs between LANDSAT-8 and TERRA Satellite Orbit:

Table of predicted SNOs for the next 14.0 days since TLE Epoch: 5/11/2024
Index Date (LANDSAT-8) Time (LANDSAT-8) Lat,Lon (LANDSAT-8) SZA (LANDSAT-8 ) Date (TERRA) Time (TERRA) Lat,Lon (TERRA) SZA (TERRA ) Distance(km) Time Diff (sec)
1 05/14/2024 21:11:20 -81.81, 111.48 111.51 05/14/2024 21:12:32 -81.80, 111.51 111.46 0.69 72
2 05/14/2024 22:00:47 81.81, -81.10 68.46 05/14/2024 22:01:54 81.81, -81.04 68.51 0.89 67
3 05/14/2024 22:50:13 -81.81, 86.73 111.53 05/14/2024 22:51:15 -81.81, 86.55 111.52 3.04 62
4 05/14/2024 23:39:39 81.80,-105.42 68.50 05/14/2024 23:40:36 81.81,-105.59 68.51 2.83 57
5 05/15/2024 00:29:06 -81.81, 61.99 111.55 05/15/2024 00:29:57 -81.81, 62.00 111.52 0.12 51
6 05/15/2024 01:18:32 81.80,-130.16 68.48 05/15/2024 01:19:18 81.80,-130.14 68.51 0.29 46
7 05/15/2024 02:07:59 -81.81, 37.25 111.56 05/15/2024 02:08:39 -81.81, 37.45 111.52 3.11 40
8 05/15/2024 02:57:25 81.81,-154.90 68.46 05/15/2024 02:58:00 81.80,-154.70 68.51 3.30 35
9 05/15/2024 03:46:51 -81.80, 12.93 111.53 05/15/2024 03:47:21 -81.80, 12.89 111.52 0.60 30
10 05/15/2024 04:36:17 81.81,-179.64 68.44 05/15/2024 04:36:42 81.81,-179.67 68.45 0.50 25
11 05/15/2024 05:25:43 -81.80, -11.81 111.55 05/15/2024 05:26:02 -81.80, -11.66 111.52 2.48 19
12 05/15/2024 06:15:10 81.81, 155.61 68.42 05/15/2024 06:15:24 81.80, 155.78 68.45 2.61 14
13 05/15/2024 07:04:36 -81.80, -36.55 111.57 05/15/2024 07:04:45 -81.81, -36.63 111.57 1.25 9
14 05/15/2024 07:54:02 81.80, 131.29 68.46 05/15/2024 07:54:06 81.80, 131.22 68.45 1.15 4
15 05/15/2024 08:43:29 -81.80, -61.30 111.58 05/15/2024 08:43:27 -81.80, -61.18 111.57 1.82 2
16 05/15/2024 09:32:55 81.80, 106.55 68.44 05/15/2024 09:32:48 81.80, 106.67 68.45 1.88 7
17 05/15/2024 10:22:21 -81.80, -85.62 111.55 05/15/2024 10:22:09 -81.80, -85.74 111.57 1.92 12
18 05/15/2024 11:11:47 81.79, 82.23 68.48 05/15/2024 11:11:30 81.79, 82.11 68.45 1.90 17
19 05/15/2024 12:01:14 -81.80,-110.36 111.57 05/15/2024 12:00:51 -81.80,-110.29 111.57 1.10 23
20 05/15/2024 12:50:40 81.79, 57.48 68.46 05/15/2024 12:50:12 81.79, 57.55 68.45 1.15 28
21 05/15/2024 13:40:06 -81.79,-134.68 111.53 05/15/2024 13:39:33 -81.79,-134.85 111.57 2.65 33
22 05/15/2024 14:29:33 81.79, 32.74 68.44 05/15/2024 14:28:55 81.80, 32.57 68.40 2.67 38
23 05/15/2024 15:18:59 -81.79,-159.43 111.55 05/15/2024 15:18:15 -81.79,-159.41 111.57 0.43 44
24 05/15/2024 16:08:26 81.79, 7.99 68.42 05/15/2024 16:07:37 81.80, 8.01 68.40 0.37 49
25 05/15/2024 16:57:52 -81.79, 175.83 111.57 05/15/2024 16:56:57 -81.78, 176.03 111.57 3.37 55
26 05/15/2024 17:47:19 81.79, -16.75 68.40 05/15/2024 17:46:19 81.79, -16.55 68.39 3.31 60
27 05/15/2024 18:36:45 -81.79, 151.08 111.59 05/15/2024 18:35:40 -81.79, 151.06 111.63 0.45 65



Historial Predications of SNOs between LANDSAT-8 and TERRA
